| time (UTC) | temp C | wind direction | speed KPH | gust KPH | rain 1hr cm | rain 24hr cm | rain mn cm | humidity % | barometer mb |
| 20260503010048 | 10 | 338 | 6.4 | 14.5 | 0.00 | 0.03 | 0.03 | 50 | 1016.6 |
| 20260503005551 | 10 | 360 | 9.7 | 16.1 | 0.00 | 0.03 | 0.03 | 50 | 1016.5 |
| 20260503005047 | 10 | 313 | 8.0 | 17.7 | 0.00 | 0.03 | 0.03 | 49 | 1016.5 |
| 20260503004546 | 11 | 335 | 9.7 | 17.7 | 0.00 | 0.03 | 0.03 | 49 | 1016.4 |
| 20260503004047 | 11 | 345 | 9.7 | 19.3 | 0.00 | 0.03 | 0.03 | 48 | 1016.4 |
| 20260503003545 | 11 | 350 | 9.7 | 19.3 | 0.00 | 0.03 | 0.03 | 48 | 1016.3 |
| 20260503003044 | 11 | 351 | 9.7 | 16.1 | 0.00 | 0.03 | 0.03 | 49 | 1016.2 |
| 20260503002547 | 11 | 360 | 8.0 | 14.5 | 0.00 | 0.03 | 0.03 | 49 | 1016.2 |
| 20260503002044 | 11 | 360 | 9.7 | 14.5 | 0.00 | 0.03 | 0.03 | 48 | 1016.1 |
| 20260503001555 | 11 | 347 | 8.0 | 14.5 | 0.00 | 0.03 | 0.03 | 47 | 1016.1 |
| 20260503001043 | 11 | 5 | 9.7 | 14.5 | 0.00 | 0.03 | 0.03 | 47 | 1016.0 |
| 20260503000544 | 11 | 326 | 8.0 | 14.5 | 0.00 | 0.03 | 0.03 | 47 | 1016.0 |
| 20260503000043 | 11 | 347 | 6.4 | 11.3 | 0.00 | 0.03 | 0.03 | 47 | 1015.8 |
| 20260502235543 | 11 | 360 | 6.4 | 11.3 | 0.00 | 0.03 | 0.03 | 47 | 1015.8 |
| 20260502235048 | 12 | 319 | 6.4 | 12.9 | 0.00 | 0.03 | 0.03 | 47 | 1015.8 |
| 20260502235043 | 12 | 326 | 6.4 | 12.9 | 0.00 | 0.03 | 0.03 | 47 | 1015.8 |
| 20260502234543 | 12 | 315 | 8.0 | 12.9 | 0.00 | 0.03 | 0.03 | 47 | 1015.7 |
| 20260502234042 | 12 | 294 | 8.0 | 14.5 | 0.00 | 0.03 | 0.03 | 46 | 1015.7 |
| 20260502233542 | 12 | 305 | 8.0 | 14.5 | 0.00 | 0.03 | 0.03 | 45 | 1015.7 |
| 20260502233045 | 12 | 317 | 9.7 | 14.5 | 0.00 | 0.03 | 0.03 | 45 | 1015.6 |
| 20260502232545 | 12 | 355 | 8.0 | 14.5 | 0.00 | 0.03 | 0.03 | 45 | 1015.6 |
| 20260502232043 | 12 | 340 | 6.4 | 16.1 | 0.00 | 0.03 | 0.03 | 46 | 1015.6 |
| 20260502231541 | 12 | 348 | 9.7 | 19.3 | 0.00 | 0.03 | 0.03 | 45 | 1015.6 |
| 20260502231041 | 12 | 313 | 9.7 | 17.7 | 0.00 | 0.03 | 0.03 | 45 | 1015.5 |
| 20260502230541 | 12 | 309 | 8.0 | 16.1 | 0.00 | 0.03 | 0.03 | 45 | 1015.5 |
| 20260502230040 | 12 | 287 | 9.7 | 17.7 | 0.00 | 0.03 | 0.03 | 45 | 1015.4 |
| 20260502225542 | 12 | 307 | 11.3 | 17.7 | 0.00 | 0.03 | 0.03 | 45 | 1015.4 |
| 20260502225040 | 12 | 341 | 9.7 | 19.3 | 0.00 | 0.03 | 0.03 | 45 | 1015.4 |
| 20260502224537 | 12 | 311 | 12.9 | 19.3 | 0.00 | 0.03 | 0.03 | 44 | 1015.4 |
| 20260502224037 | 12 | 286 | 9.7 | 19.3 | 0.00 | 0.03 | 0.03 | 43 | 1015.4 |
| 20260502223537 | 12 | 332 | 11.3 | 20.9 | 0.00 | 0.03 | 0.03 | 44 | 1015.4 |
| 20260502223037 | 12 | 270 | 11.3 | 20.9 | 0.00 | 0.03 | 0.03 | 44 | 1015.3 |
| 20260502222540 | 12 | 307 | 9.7 | 20.9 | 0.00 | 0.03 | 0.03 | 44 | 1015.3 |
| 20260502222036 | 12 | 306 | 11.3 | 20.9 | 0.00 | 0.03 | 0.03 | 44 | 1015.3 |
| 20260502221541 | 13 | 344 | 9.7 | 17.7 | 0.00 | 0.03 | 0.03 | 44 | 1015.3 |
| 20260502221038 | 13 | 290 | 9.7 | 17.7 | 0.00 | 0.03 | 0.03 | 43 | 1015.2 |
| 20260502220536 | 13 | 337 | 8.0 | 17.7 | 0.00 | 0.03 | 0.03 | 43 | 1015.2 |
| 20260502220036 | 13 | 301 | 8.0 | 19.3 | 0.00 | 0.03 | 0.03 | 43 | 1015.1 |
| 20260502215537 | 13 | 323 | 11.3 | 20.9 | 0.00 | 0.03 | 0.03 | 43 | 1015.1 |
| 20260502215037 | 13 | 355 | 11.3 | 20.9 | 0.00 | 0.03 | 0.03 | 44 | 1015.1 |
| 20260502214533 | 13 | 311 | 9.7 | 20.9 | 0.00 | 0.03 | 0.03 | 43 | 1015.0 |
| 20260502214032 | 13 | 331 | 9.7 | 22.5 | 0.00 | 0.03 | 0.03 | 43 | 1015.0 |
| 20260502213533 | 13 | 294 | 12.9 | 29.0 | 0.00 | 0.03 | 0.03 | 42 | 1015.0 |
| 20260502213034 | 13 | 293 | 12.9 | 29.0 | 0.00 | 0.03 | 0.03 | 40 | 1015.0 |
| 20260502212533 | 13 | 292 | 11.3 | 20.9 | 0.00 | 0.03 | 0.03 | 40 | 1014.9 |
| 20260502212032 | 14 | 288 | 11.3 | 20.9 | 0.00 | 0.03 | 0.03 | 41 | 1014.9 |
| 20260502211533 | 14 | 355 | 14.5 | 22.5 | 0.00 | 0.03 | 0.03 | 40 | 1014.8 |
| 20260502211032 | 13 | 337 | 11.3 | 22.5 | 0.00 | 0.03 | 0.03 | 41 | 1014.9 |
| 20260502210532 | 13 | 342 | 14.5 | 29.0 | 0.00 | 0.03 | 0.03 | 42 | 1014.9 |
| 20260502210031 | 13 | 319 | 14.5 | 29.0 | 0.00 | 0.03 | 0.03 | 42 | 1014.9 |
| 20260502205530 | 13 | 260 | 11.3 | 22.5 | 0.00 | 0.03 | 0.03 | 42 | 1014.9 |
| 20260502205030 | 13 | 298 | 14.5 | 24.1 | 0.00 | 0.03 | 0.03 | 41 | 1014.9 |
| 20260502204529 | 13 | 348 | 8.0 | 24.1 | 0.00 | 0.03 | 0.03 | 41 | 1015.0 |
| 20260502204030 | 13 | 337 | 8.0 | 25.7 | 0.00 | 0.03 | 0.03 | 41 | 1014.9 |
| 20260502203528 | 13 | 310 | 16.1 | 25.7 | 0.00 | 0.03 | 0.03 | 41 | 1015.0 |
| 20260502203028 | 13 | 321 | 8.0 | 20.9 | 0.00 | 0.03 | 0.03 | 42 | 1015.0 |
| 20260502202527 | 13 | 319 | 11.3 | 20.9 | 0.00 | 0.03 | 0.03 | 42 | 1015.0 |
| 20260502202027 | 13 | 301 | 11.3 | 19.3 | 0.00 | 0.03 | 0.03 | 41 | 1015.1 |
| 20260502201526 | 13 | 283 | 12.9 | 19.3 | 0.00 | 0.03 | 0.03 | 41 | 1015.2 |
| 20260502201026 | 13 | 317 | 9.7 | 16.1 | 0.00 | 0.03 | 0.03 | 43 | 1015.2 |
| 20260502200528 | 13 | 290 | 8.0 | 24.1 | 0.00 | 0.03 | 0.03 | 43 | 1015.1 |
| 20260502200025 | 13 | 291 | 9.7 | 30.6 | 0.00 | 0.03 | 0.03 | 42 | 1015.2 |
| 20260502195524 | 13 | 333 | 9.7 | 30.6 | 0.00 | 0.03 | 0.03 | 41 | 1015.2 |
| 20260502195023 | 14 | 285 | 16.1 | 30.6 | 0.00 | 0.03 | 0.03 | 41 | 1015.3 |
| 20260502194520 | 13 | 310 | 11.3 | 19.3 | 0.00 | 0.03 | 0.03 | 44 | 1015.3 |
| 20260502194020 | 13 | 331 | 12.9 | 24.1 | 0.00 | 0.03 | 0.03 | 44 | 1015.3 |
| 20260502193520 | 13 | 299 | 11.3 | 20.9 | 0.00 | 0.03 | 0.03 | 42 | 1015.4 |
| 20260502193019 | 13 | 275 | 11.3 | 20.9 | 0.00 | 0.03 | 0.03 | 42 | 1015.4 |
| 20260502192520 | 13 | 283 | 11.3 | 20.9 | 0.00 | 0.03 | 0.03 | 42 | 1015.4 |
| 20260502192019 | 14 | 305 | 11.3 | 30.6 | 0.00 | 0.03 | 0.03 | 41 | 1015.4 |
| 20260502191519 | 14 | 288 | 14.5 | 30.6 | 0.00 | 0.03 | 0.03 | 40 | 1015.5 |
| 20260502191019 | 15 | 329 | 16.1 | 29.0 | 0.00 | 0.03 | 0.03 | 38 | 1015.5 |
| 20260502190518 | 15 | 284 | 8.0 | 20.9 | 0.00 | 0.03 | 0.03 | 38 | 1015.4 |
| 20260502190018 | 15 | 269 | 11.3 | 20.9 | 0.00 | 0.03 | 0.03 | 39 | 1015.5 |
| 20260502185516 | 15 | 260 | 8.0 | 20.9 | 0.00 | 0.03 | 0.03 | 39 | 1015.6 |
| 20260502185017 | 15 | 339 | 14.5 | 20.9 | 0.00 | 0.03 | 0.03 | 39 | 1015.6 |
| 20260502184525 | 15 | 312 | 8.0 | 17.7 | 0.00 | 0.03 | 0.03 | 42 | 1015.6 |
| 20260502184013 | 14 | 234 | 1.6 | 19.3 | 0.00 | 0.03 | 0.03 | 43 | 1015.7 |
| 20260502183512 | 14 | 323 | 9.7 | 19.3 | 0.00 | 0.03 | 0.03 | 43 | 1015.7 |
| 20260502183025 | 14 | 308 | 3.2 | 14.5 | 0.00 | 0.03 | 0.03 | 43 | 1015.8 |
| 20260502182512 | 15 | 214 | 6.4 | 14.5 | 0.00 | 0.03 | 0.03 | 41 | 1015.7 |
| 20260502182010 | 14 | 238 | 8.0 | 16.1 | 0.00 | 0.03 | 0.03 | 43 | 1015.9 |
| 20260502181518 | 13 | 273 | 9.7 | 19.3 | 0.00 | 0.03 | 0.03 | 45 | 1016.0 |
| 20260502181514 | 13 | 261 | 9.7 | 19.3 | 0.00 | 0.03 | 0.03 | 45 | 1016.0 |
| 20260502181009 | 12 | 283 | 9.7 | 24.1 | 0.00 | 0.03 | 0.03 | 47 | 1016.2 |
| 20260502180509 | 12 | 299 | 9.7 | 24.1 | 0.03 | 0.03 | 0.03 | 46 | 1016.2 |
| 20260502170504 | 14 | 346 | 20.9 | 32.2 | 0.00 | 0.00 | 0.00 | 42 | 1016.3 |
| 20260502164033 | 13 | 302 | 12.9 | 32.2 | 0.00 | 0.00 | 0.00 | 43 | 1016.5 |
| 20260502163532 | 13 | 348 | 14.5 | 33.8 | 0.00 | 0.00 | 0.00 | 42 | 1016.4 |
| 20260502163032 | 14 | 314 | 16.1 | 33.8 | 0.00 | 0.00 | 0.00 | 41 | 1016.5 |
| 20260502162530 | 14 | 285 | 9.7 | 20.9 | 0.00 | 0.00 | 0.00 | 44 | 1016.5 |
| 20260502162034 | 13 | 306 | 11.3 | 25.7 | 0.00 | 0.00 | 0.00 | 45 | 1016.6 |
| 20260502161529 | 13 | 246 | 11.3 | 25.7 | 0.00 | 0.00 | 0.00 | 44 | 1016.6 |
| 20260502161025 | 13 | 282 | 11.3 | 19.3 | 0.00 | 0.00 | 0.00 | 42 | 1016.7 |
| 20260502160527 | 14 | 355 | 11.3 | 20.9 | 0.00 | 0.00 | 0.00 | 42 | 1016.6 |
| 20260502152018 | 13 | 36 | 9.7 | 14.5 | 0.00 | 0.03 | 0.00 | 50 | 1016.9 |
| 20260502151518 | 13 | 307 | 4.8 | 12.9 | 0.00 | 0.03 | 0.00 | 51 | 1017.0 |
| 20260502151015 | 12 | 133 | 1.6 | 11.3 | 0.00 | 0.03 | 0.00 | 52 | 1016.8 |
| 20260502150514 | 12 | 315 | 4.8 | 11.3 | 0.00 | 0.03 | 0.00 | 53 | 1016.9 |
| 20260502130540 | 7 | 295 | 0.0 | 3.2 | 0.00 | 0.03 | 0.00 | 94 | 1017.2 |
| 20260502123529 | 5 | 260 | 0.0 | 0.0 | 0.00 | 0.03 | 0.00 | 96 | 1017.1 |
| 20260502123033 | 5 | 260 | 0.0 | 0.0 | 0.00 | 0.03 | 0.00 | 95 | 1017.0 |
| 20260502122527 | 5 | 261 | 0.0 | 0.0 | 0.00 | 0.03 | 0.00 | 96 | 1016.9 |
| 20260502122025 | 5 | 262 | 0.0 | 0.0 | 0.00 | 0.03 | 0.00 | 95 | 1016.9 |
| 20260502121525 | 5 | 265 | 0.0 | 0.0 | 0.00 | 0.03 | 0.00 | 96 | 1017.0 |
| 20260502121024 | 5 | 266 | 0.0 | 0.0 | 0.00 | 0.03 | 0.00 | 96 | 1017.1 |
| 20260502120520 | 5 | 279 | 0.0 | 0.0 | 0.00 | 0.03 | 0.00 | 96 | 1017.1 |
| 20260502115518 | 5 | 313 | 0.0 | 0.0 | 0.00 | 0.03 | 0.00 | 96 | 1017.0 |
| 20260502115017 | 4 | 313 | 0.0 | 0.0 | 0.00 | 0.03 | 0.00 | 95 | 1016.9 |
| 20260502114516 | 4 | 315 | 0.0 | 0.0 | 0.00 | 0.03 | 0.00 | 95 | 1016.9 |
| 20260502114015 | 4 | 315 | 0.0 | 6.4 | 0.00 | 0.03 | 0.00 | 95 | 1016.9 |
| 20260502113513 | 4 | 317 | 0.0 | 0.0 | 0.00 | 0.03 | 0.00 | 95 | 1016.8 |
| 20260502113012 | 4 | 317 | 0.0 | 1.6 | 0.00 | 0.03 | 0.00 | 95 | 1016.9 |
| 20260502112512 | 3 | 317 | 0.0 | 3.2 | 0.00 | 0.03 | 0.00 | 95 | 1016.9 |
| 20260502112011 | 3 | 317 | 1.6 | 3.2 | 0.00 | 0.03 | 0.00 | 95 | 1016.7 |
| 20260502111517 | 3 | 317 | 0.0 | 3.2 | 0.00 | 0.03 | 0.00 | 95 | 1016.7 |
| 20260502111011 | 3 | 317 | 0.0 | 3.2 | 0.00 | 0.03 | 0.00 | 95 | 1016.7 |
| 20260502110508 | 3 | 317 | 0.0 | 1.6 | 0.00 | 0.03 | 0.00 | 95 | 1016.6 |
| 20260502110012 | 3 | 317 | 0.0 | 3.2 | 0.00 | 0.03 | 0.00 | 94 | 1016.6 |
| 20260502105510 | 3 | 317 | 0.0 | 6.4 | 0.00 | 0.03 | 0.00 | 94 | 1016.5 |
| 20260502105010 | 3 | 317 | 1.6 | 4.8 | 0.00 | 0.03 | 0.00 | 94 | 1016.5 |
| 20260502104506 | 3 | 318 | 1.6 | 6.4 | 0.00 | 0.03 | 0.00 | 94 | 1016.5 |
| 20260502104004 | 3 | 318 | 1.6 | 8.0 | 0.00 | 0.03 | 0.00 | 94 | 1016.5 |
| 20260502103503 | 3 | 320 | 3.2 | 8.0 | 0.00 | 0.03 | 0.00 | 94 | 1016.6 |
| 20260502103002 | 3 | 55 | 0.0 | 1.6 | 0.00 | 0.03 | 0.00 | 94 | 1016.5 |
| 20260502102503 | 3 | 56 | 0.0 | 1.6 | 0.00 | 0.03 | 0.00 | 94 | 1016.4 |
| 20260502102002 | 3 | 57 | 0.0 | 1.6 | 0.00 | 0.03 | 0.00 | 93 | 1016.4 |
| 20260502101501 | 3 | 57 | 0.0 | 0.0 | 0.00 | 0.03 | 0.00 | 94 | 1016.5 |
| 20260502101101 | 3 | 57 | 0.0 | 0.0 | 0.00 | 0.03 | 0.00 | 94 | 1016.7 |
| 20260502100601 | 3 | 57 | 0.0 | 0.0 | 0.00 | 0.03 | 0.00 | 94 | 1016.8 |
| 20260502100505 | 3 | 57 | 0.0 | 0.0 | 0.00 | 0.03 | 0.00 | 94 | 1016.7 |
| 20260502091522 | 3 | 285 | 0.0 | 1.6 | 0.00 | 0.05 | 0.00 | 93 | 1016.7 |
| 20260502091022 | 3 | 273 | 0.0 | 0.0 | 0.00 | 0.05 | 0.00 | 93 | 1016.7 |
| 20260502090521 | 3 | 275 | 0.0 | 0.0 | 0.00 | 0.05 | 0.00 | 93 | 1016.7 |
| 20260502071510 | 4 | 285 | 0.0 | 0.0 | 0.00 | 0.05 | 0.05 | 91 | 1016.4 |
| 20260502071010 | 4 | 285 | 0.0 | 0.0 | 0.00 | 0.05 | 0.05 | 91 | 1016.3 |
| 20260502070510 | 4 | 285 | 0.0 | 0.0 | 0.00 | 0.05 | 0.05 | 90 | 1016.4 |
| 20260502070010 | 4 | 285 | 0.0 | 0.0 | 0.00 | 0.05 | 0.05 | 90 | 1016.4 |
| 20260502065510 | 5 | 285 | 0.0 | 1.6 | 0.00 | 0.05 | 0.05 | 90 | 1016.4 |
| 20260502065009 | 5 | 285 | 0.0 | 1.6 | 0.00 | 0.05 | 0.05 | 90 | 1016.6 |
| 20260502064509 | 5 | 285 | 0.0 | 3.2 | 0.00 | 0.05 | 0.05 | 90 | 1016.5 |
| 20260502064009 | 5 | 285 | 0.0 | 3.2 | 0.00 | 0.05 | 0.05 | 90 | 1016.7 |
| 20260502063509 | 5 | 285 | 0.0 | 6.4 | 0.00 | 0.05 | 0.05 | 89 | 1016.7 |
| 20260502063110 | 5 | 286 | 0.0 | 8.0 | 0.00 | 0.05 | 0.05 | 89 | 1016.6 |
| 20260502062543 | 5 | 287 | 1.6 | 8.0 | 0.00 | 0.05 | 0.05 | 89 | 1016.7 |
| 20260502062039 | 5 | 308 | 0.0 | 0.0 | 0.00 | 0.05 | 0.05 | 89 | 1016.7 |
| 20260502061541 | 5 | 308 | 0.0 | 0.0 | 0.00 | 0.05 | 0.05 | 88 | 1016.7 |
| 20260502061038 | 5 | 308 | 0.0 | 0.0 | 0.00 | 0.05 | 0.05 | 88 | 1016.7 |
| 20260502060541 | 5 | 308 | 0.0 | 0.0 | 0.00 | 0.05 | 0.05 | 88 | 1016.8 |
| 20260502060038 | 5 | 308 | 0.0 | 0.0 | 0.00 | 0.05 | 0.05 | 88 | 1016.9 |
| 20260502055536 | 5 | 308 | 0.0 | 0.0 | 0.00 | 0.05 | 0.05 | 88 | 1016.9 |
| 20260502055036 | 5 | 308 | 0.0 | 0.0 | 0.00 | 0.05 | 0.05 | 88 | 1016.9 |
| 20260502054536 | 5 | 308 | 0.0 | 0.0 | 0.00 | 0.05 | 0.05 | 88 | 1016.9 |
| 20260502054035 | 5 | 308 | 0.0 | 0.0 | 0.00 | 0.05 | 0.05 | 88 | 1016.8 |
| 20260502053535 | 5 | 308 | 0.0 | 0.0 | 0.00 | 0.05 | 0.05 | 88 | 1016.9 |
| 20260502053036 | 6 | 308 | 0.0 | 0.0 | 0.00 | 0.05 | 0.05 | 87 | 1017.0 |
| 20260502052535 | 6 | 308 | 0.0 | 0.0 | 0.00 | 0.05 | 0.05 | 87 | 1017.0 |
| 20260502052035 | 6 | 308 | 0.0 | 0.0 | 0.00 | 0.05 | 0.05 | 87 | 1017.0 |
| 20260502051543 | 6 | 308 | 0.0 | 0.0 | 0.00 | 0.05 | 0.05 | 87 | 1016.9 |
| 20260502051034 | 6 | 308 | 0.0 | 0.0 | 0.00 | 0.05 | 0.05 | 87 | 1017.0 |
| 20260502050534 | 6 | 308 | 0.0 | 0.0 | 0.00 | 0.05 | 0.05 | 86 | 1017.0 |
| 20260502050038 | 6 | 308 | 0.0 | 1.6 | 0.00 | 0.05 | 0.05 | 86 | 1017.1 |
| 20260502045531 | 6 | 308 | 0.0 | 6.4 | 0.00 | 0.05 | 0.05 | 86 | 1017.1 |
| 20260502045036 | 6 | 308 | 1.6 | 6.4 | 0.00 | 0.05 | 0.05 | 86 | 1017.0 |
| 20260502044531 | 6 | 309 | 3.2 | 6.4 | 0.00 | 0.05 | 0.05 | 85 | 1017.0 |
| 20260502044031 | 6 | 311 | 0.0 | 0.0 | 0.00 | 0.05 | 0.05 | 84 | 1017.1 |
| 20260502043530 | 6 | 311 | 0.0 | 0.0 | 0.00 | 0.05 | 0.05 | 84 | 1017.1 |
| 20260502043030 | 6 | 311 | 0.0 | 3.2 | 0.00 | 0.05 | 0.05 | 84 | 1017.2 |
| 20260502042530 | 6 | 311 | 0.0 | 6.4 | 0.00 | 0.05 | 0.05 | 83 | 1017.2 |
| 20260502042033 | 6 | 309 | 0.0 | 3.2 | 0.00 | 0.05 | 0.05 | 83 | 1017.2 |
| 20260502041542 | 7 | 309 | 0.0 | 3.2 | 0.00 | 0.05 | 0.05 | 83 | 1017.2 |
| 20260502041029 | 7 | 309 | 0.0 | 6.4 | 0.00 | 0.05 | 0.05 | 82 | 1017.2 |
| 20260502040528 | 7 | 309 | 1.6 | 4.8 | 0.00 | 0.05 | 0.05 | 82 | 1017.2 |
| 20260502040028 | 7 | 309 | 3.2 | 4.8 | 0.00 | 0.08 | 0.05 | 81 | 1017.3 |
| 20260502035526 | 7 | 318 | 0.0 | 0.0 | 0.00 | 0.08 | 0.05 | 80 | 1017.2 |
| 20260502035027 | 7 | 318 | 0.0 | 3.2 | 0.00 | 0.08 | 0.05 | 80 | 1017.1 |
| 20260502034526 | 7 | 320 | 0.0 | 3.2 | 0.00 | 0.08 | 0.05 | 80 | 1017.2 |
| 20260502034025 | 7 | 320 | 0.0 | 6.4 | 0.00 | 0.08 | 0.05 | 79 | 1017.1 |
| 20260502033526 | 8 | 320 | 1.6 | 8.0 | 0.00 | 0.08 | 0.05 | 79 | 1017.0 |
| 20260502033027 | 8 | 333 | 3.2 | 4.8 | 0.00 | 0.08 | 0.05 | 79 | 1016.9 |
| 20260502032527 | 8 | 355 | 1.6 | 4.8 | 0.00 | 0.08 | 0.05 | 78 | 1016.9 |
| 20260502032025 | 8 | 355 | 1.6 | 4.8 | 0.00 | 0.08 | 0.05 | 77 | 1016.9 |
| 20260502031525 | 8 | 5 | 3.2 | 4.8 | 0.00 | 0.08 | 0.05 | 76 | 1016.9 |
| 20260502031025 | 9 | 5 | 1.6 | 4.8 | 0.00 | 0.08 | 0.05 | 75 | 1016.9 |
| 20260502030525 | 9 | 10 | 1.6 | 4.8 | 0.00 | 0.08 | 0.05 | 73 | 1017.0 |
| 20260502030025 | 9 | 13 | 1.6 | 4.8 | 0.00 | 0.08 | 0.05 | 71 | 1017.1 |
| 20260502025528 | 10 | 13 | 0.0 | 6.4 | 0.00 | 0.08 | 0.05 | 69 | 1017.0 |
| 20260502025021 | 10 | 13 | 0.0 | 6.4 | 0.00 | 0.08 | 0.05 | 68 | 1017.1 |
| 20260502024522 | 10 | 355 | 1.6 | 4.8 | 0.00 | 0.08 | 0.05 | 67 | 1017.1 |
| 20260502024022 | 10 | 355 | 0.0 | 3.2 | 0.00 | 0.08 | 0.05 | 67 | 1017.1 |
| 20260502023522 | 10 | 355 | 0.0 | 6.4 | 0.00 | 0.08 | 0.05 | 66 | 1017.2 |
| 20260502023022 | 10 | 355 | 0.0 | 6.4 | 0.00 | 0.08 | 0.05 | 66 | 1017.2 |
| 20260502022521 | 10 | 355 | 0.0 | 3.2 | 0.00 | 0.08 | 0.05 | 66 | 1017.2 |
| 20260502022024 | 10 | 355 | 0.0 | 6.4 | 0.00 | 0.08 | 0.05 | 66 | 1017.1 |
| 20260502021521 | 10 | 355 | 0.0 | 6.4 | 0.00 | 0.08 | 0.05 | 66 | 1017.0 |
| 20260502021021 | 10 | 11 | 0.0 | 9.7 | 0.00 | 0.08 | 0.05 | 66 | 1016.8 |
| 20260502020521 | 10 | 355 | 4.8 | 9.7 | 0.00 | 0.08 | 0.05 | 65 | 1016.7 |
| 20260502020017 | 10 | 88 | 1.6 | 9.7 | 0.00 | 0.08 | 0.05 | 65 | 1016.6 |
| 20260502015514 | 10 | 42 | 3.2 | 9.7 | 0.00 | 0.08 | 0.05 | 65 | 1016.5 |
| 20260502015017 | 10 | 54 | 4.8 | 11.3 | 0.00 | 0.08 | 0.05 | 65 | 1016.4 |
| 20260502014523 | 10 | 52 | 4.8 | 11.3 | 0.00 | 0.08 | 0.05 | 64 | 1016.2 |
| 20260502014012 | 10 | 329 | 3.2 | 17.7 | 0.00 | 0.08 | 0.05 | 64 | 1016.1 |
| 20260502013512 | 10 | 360 | 9.7 | 17.7 | 0.00 | 0.08 | 0.05 | 64 | 1016.1 |
| 20260502013011 | 10 | 355 | 9.7 | 16.1 | 0.00 | 0.08 | 0.05 | 64 | 1016.0 |
| 20260502012513 | 11 | 11 | 8.0 | 16.1 | 0.00 | 0.08 | 0.05 | 64 | 1015.9 |
| 20260502012010 | 11 | 13 | 6.4 | 16.1 | 0.00 | 0.08 | 0.05 | 64 | 1015.8 |
| 20260502011510 | 11 | 355 | 8.0 | 14.5 | 0.00 | 0.08 | 0.05 | 64 | 1015.7 |
| 20260502011009 | 11 | 10 | 8.0 | 17.7 | 0.00 | 0.08 | 0.05 | 64 | 1015.7 |
| 20260502010510 | 11 | 355 | 8.0 | 19.3 | 0.00 | 0.08 | 0.05 | 64 | 1015.5 |